Вернуться в каталог

STARLINK-3563

АктивенСвязьVLEO
NORAD 51858·PAYLOAD·🇺🇸 United States

Запущен Mar 3, 2022 с Cape Canaveral Space Force Station

Loading…

Ближайшие Пролёты (ближайшие 24 часа)

TLE

СвежийSource: CelesTrak SupGP

Эпоха: Sep 14, 2026, 21:33 UTC

1 51858C 22022G   26257.89840278  .00037684  00000+0  11133-2 0  2578
2 51858  53.1563 235.8701 0001268  96.7505 273.8350 15.34374062    11

Отслеживайте STARLINK-3563 в реальном времени с AllMySat

Download on the App Store